Index of /search/query_grid

[ICO]NameLast modifiedSizeDescription

[DIR]Parent Directory  -
[TXT]NMR_param_grid.html23-Apr-2018 00:38 4.3K
[   ]getQueryGrids.sh11-Oct-2005 17:17 12K
[TXT]initial_grid.html23-Apr-2018 00:38 5.2K
[TXT]initial_grid_fig.html23-Apr-2018 00:38 5.1K
[TXT]kinetic_grid.html23-Apr-2018 00:38 2.6K
[TXT]query_1_1.html23-Apr-2018 00:38 1.5K
[TXT]query_1_1_1.html23-Apr-2018 00:38 4.3M
[TXT]query_1_1_2.html23-Apr-2018 00:38 4.3M
[TXT]query_1_1_3.html23-Apr-2018 00:38 4.3M
[TXT]query_1_1_4.html23-Apr-2018 00:38 4.3M
[TXT]query_1_2.html23-Apr-2018 00:38 3.9K
[TXT]query_1_2_0.html23-Apr-2018 00:38 1.5K
[TXT]query_1_2_0_1.html23-Apr-2018 00:38 4.0M
[TXT]query_1_2_0_2.html23-Apr-2018 00:38 4.0M
[TXT]query_1_2_0_3.html23-Apr-2018 00:38 4.0M
[TXT]query_1_2_0_5.html26-May-2011 22:42 16K
[TXT]query_1_2_2.html25-Aug-2016 00:14 1.5K
[TXT]query_1_2_2_2.html25-Aug-2016 00:14 2.1K
[TXT]query_1_2_2_3.html25-Aug-2016 00:14 2.1K
[TXT]query_1_2_2_4.html25-Aug-2016 00:14 2.1K
[TXT]query_1_2_2_5.html25-Aug-2016 00:14 2.1K
[TXT]query_1_2_3.html23-Dec-2017 00:12 1.5K
[TXT]query_1_2_3_2.html23-Dec-2017 00:12 303K
[TXT]query_1_2_3_3.html23-Dec-2017 00:12 303K
[TXT]query_1_2_3_4.html23-Dec-2017 00:12 303K
[TXT]query_1_2_3_5.html23-Dec-2017 00:12 303K
[TXT]query_1_2_4.html02-Apr-2018 00:14 24K
[TXT]query_1_2_5.html11-Mar-2018 00:16 30K
[TXT]query_1_2_6.html25-Aug-2016 00:14 4.3K
[TXT]query_1_2_8.html23-Apr-2018 00:38 1.5K
[TXT]query_1_2_8_2.html23-Apr-2018 00:38 3.6M
[TXT]query_1_2_8_3.html23-Apr-2018 00:38 3.6M
[TXT]query_1_2_8_4.html23-Apr-2018 00:38 3.6M
[TXT]query_1_2_8_5.html23-Apr-2018 00:38 3.6M
[TXT]query_1_2_9.html23-Apr-2018 00:38 1.5K
[TXT]query_1_2_9_2.html23-Apr-2018 00:38 2.3M
[TXT]query_1_2_9_3.html23-Apr-2018 00:38 2.3M
[TXT]query_1_2_9_4.html23-Apr-2018 00:38 2.3M
[TXT]query_1_2_9_5.html23-Apr-2018 00:38 2.3M
[TXT]query_1_2_10.html23-Dec-2017 00:12 1.5K
[TXT]query_1_2_10_2.html23-Dec-2017 00:12 383K
[TXT]query_1_2_10_3.html23-Dec-2017 00:12 383K
[TXT]query_1_2_10_4.html23-Dec-2017 00:12 383K
[TXT]query_1_2_10_5.html23-Dec-2017 00:12 383K
[TXT]query_1_2_11_2.html02-Apr-2018 00:14 22K
[TXT]query_1_2_12_2.html11-Mar-2018 00:16 28K
[TXT]query_1_2_13_2.html25-Aug-2016 00:14 4.2K
[TXT]query_1_2_15.html23-Apr-2018 00:38 1.6K
[TXT]query_1_2_15_2.html23-Apr-2018 00:38 2.4M
[TXT]query_1_2_15_3.html23-Apr-2018 00:38 2.4M
[TXT]query_1_2_15_4.html23-Apr-2018 00:38 2.4M
[TXT]query_1_2_15_5.html23-Apr-2018 00:38 2.4M
[TXT]query_1_2_16.html23-Apr-2018 00:38 1.6K
[TXT]query_1_2_16_2.html23-Apr-2018 00:38 1.4M
[TXT]query_1_2_16_3.html23-Apr-2018 00:38 1.4M
[TXT]query_1_2_16_4.html23-Apr-2018 00:38 1.4M
[TXT]query_1_2_16_5.html23-Apr-2018 00:38 1.4M
[TXT]query_1_2_17.html23-Dec-2017 00:12 1.6K
[TXT]query_1_2_17_2.html23-Dec-2017 00:12 184K
[TXT]query_1_2_17_3.html23-Dec-2017 00:12 184K
[TXT]query_1_2_17_4.html23-Dec-2017 00:12 184K
[TXT]query_1_2_17_5.html23-Dec-2017 00:12 184K
[TXT]query_1_2_18_2.html02-Apr-2018 00:14 16K
[TXT]query_1_2_19_2.html28-Feb-2018 00:08 18K
[TXT]query_1_2_20_2.html25-Aug-2016 00:14 3.0K
[TXT]query_1_2_22.html23-Apr-2018 00:38 1.5K
[TXT]query_1_2_22_2.html23-Apr-2018 00:38 2.5M
[TXT]query_1_2_22_3.html23-Apr-2018 00:38 2.5M
[TXT]query_1_2_22_4.html23-Apr-2018 00:38 2.5M
[TXT]query_1_2_22_5.html23-Apr-2018 00:38 2.5M
[TXT]query_1_2_23.html23-Apr-2018 00:38 1.6K
[TXT]query_1_2_23_2.html23-Apr-2018 00:38 1.7M
[TXT]query_1_2_23_3.html23-Apr-2018 00:38 1.7M
[TXT]query_1_2_23_4.html23-Apr-2018 00:38 1.7M
[TXT]query_1_2_23_5.html23-Apr-2018 00:38 1.7M
[TXT]query_1_2_23_7.html23-Apr-2018 00:38 1.7M
[TXT]query_1_2_24.html23-Dec-2017 00:12 1.5K
[TXT]query_1_2_24_2.html23-Dec-2017 00:12 270K
[TXT]query_1_2_24_3.html23-Dec-2017 00:12 270K
[TXT]query_1_2_24_4.html23-Dec-2017 00:12 270K
[TXT]query_1_2_24_5.html23-Dec-2017 00:12 270K
[TXT]query_1_2_25_2.html11-Mar-2018 00:16 13K
[TXT]query_1_2_26_2.html04-Nov-2017 00:10 14K
[TXT]query_1_2_27_2.html25-Aug-2016 00:14 2.7K
[TXT]query_1_2_29.html18-Mar-2018 00:12 1.6K
[TXT]query_1_2_29_2.html18-Mar-2018 00:12 1.7M
[TXT]query_1_2_29_3.html18-Mar-2018 00:12 1.7M
[TXT]query_1_2_29_4.html18-Mar-2018 00:12 1.7M
[TXT]query_1_2_29_5.html18-Mar-2018 00:12 1.7M
[TXT]query_1_2_30.html18-Mar-2018 00:12 1.6K
[TXT]query_1_2_30_2.html18-Mar-2018 00:12 1.1M
[TXT]query_1_2_30_3.html18-Mar-2018 00:12 1.1M
[TXT]query_1_2_30_4.html18-Mar-2018 00:12 1.1M
[TXT]query_1_2_30_5.html18-Mar-2018 00:12 1.1M
[TXT]query_1_2_31.html23-Dec-2017 00:12 1.6K
[TXT]query_1_2_31_2.html23-Dec-2017 00:12 194K
[TXT]query_1_2_31_3.html23-Dec-2017 00:12 194K
[TXT]query_1_2_31_4.html23-Dec-2017 00:12 194K
[TXT]query_1_2_31_5.html23-Dec-2017 00:12 194K
[TXT]query_1_2_32.html11-Mar-2018 00:16 1.6K
[TXT]query_1_2_32_2.html11-Mar-2018 00:16 9.8K
[TXT]query_1_2_32_3.html11-Mar-2018 00:16 9.8K
[TXT]query_1_2_32_4.html11-Mar-2018 00:16 9.8K
[TXT]query_1_2_32_5.html11-Mar-2018 00:16 9.8K
[TXT]query_1_2_33.html25-Aug-2016 00:14 1.6K
[TXT]query_1_2_33_2.html25-Aug-2016 00:14 13K
[TXT]query_1_2_33_3.html25-Aug-2016 00:14 13K
[TXT]query_1_2_33_4.html25-Aug-2016 00:14 13K
[TXT]query_1_2_33_5.html25-Aug-2016 00:14 13K
[TXT]query_1_3.html23-Apr-2018 00:38 147K
[TXT]query_1_4.html11-Mar-2018 00:16 128K
[TXT]query_1_5.html23-Apr-2018 00:38 1.5K
[TXT]query_1_5_1.html23-Apr-2018 00:38 4.2M
[TXT]query_1_5_2.html23-Apr-2018 00:38 4.2M
[TXT]query_1_5_3.html23-Apr-2018 00:38 4.2M
[TXT]query_1_5_4.html23-Apr-2018 00:38 4.2M
[TXT]query_1_6.html23-Apr-2018 00:38 1.5K
[TXT]query_1_6_2.html23-Apr-2018 00:38 3.9M
[TXT]query_1_6_3.html23-Apr-2018 00:38 3.9M
[TXT]query_1_6_4.html23-Apr-2018 00:38 3.9M
[TXT]query_1_6_5.html23-Apr-2018 00:38 3.9M
[TXT]query_1_7.html23-Apr-2018 00:38 1.6K
[TXT]query_1_7_2.html23-Apr-2018 00:38 125K
[TXT]query_1_7_3.html23-Apr-2018 00:38 125K
[TXT]query_1_7_4.html23-Apr-2018 00:38 125K
[TXT]query_1_7_5.html23-Apr-2018 00:38 125K
[TXT]query_1_7_6.html23-Apr-2018 00:38 125K
[TXT]query_1_8.html11-Mar-2018 00:16 1.5K
[TXT]query_1_8_2.html11-Mar-2018 00:16 109K
[TXT]query_1_8_3.html11-Mar-2018 00:16 109K
[TXT]query_1_8_4.html11-Mar-2018 00:16 109K
[TXT]query_1_8_5.html11-Mar-2018 00:16 109K
[TXT]query_1_9.html23-Apr-2018 00:38 1.5K
[TXT]query_1_9_1.html23-Apr-2018 00:38 4.0M
[TXT]query_1_9_2.html23-Apr-2018 00:38 4.0M
[TXT]query_1_9_3.html23-Apr-2018 00:38 4.0M
[TXT]query_1_9_4.html23-Apr-2018 00:38 4.0M
[TXT]query_1_10.html23-Apr-2018 00:38 1.5K
[TXT]query_1_10_1.html23-Apr-2018 00:38 3.8M
[TXT]query_1_10_2.html23-Apr-2018 00:38 3.8M
[TXT]query_1_10_3.html23-Apr-2018 00:38 3.8M
[TXT]query_1_10_4.html23-Apr-2018 00:38 3.8M
[TXT]query_1_11.html23-Apr-2018 00:38 123K
[TXT]query_1_12.html11-Mar-2018 00:16 108K
[TXT]query_1_13.html23-Apr-2018 00:38 1.5K
[TXT]query_1_13_1.html23-Apr-2018 00:38 3.0M
[TXT]query_1_13_2.html23-Apr-2018 00:38 3.0M
[TXT]query_1_13_3.html23-Apr-2018 00:38 3.0M
[TXT]query_1_13_4.html23-Apr-2018 00:38 3.0M
[TXT]query_1_14.html23-Apr-2018 00:38 1.5K
[TXT]query_1_14_1.html23-Apr-2018 00:38 2.9M
[TXT]query_1_14_2.html23-Apr-2018 00:38 2.9M
[TXT]query_1_14_3.html23-Apr-2018 00:38 2.9M
[TXT]query_1_14_4.html23-Apr-2018 00:38 2.9M
[TXT]query_1_15.html28-Feb-2018 00:08 20K
[TXT]query_1_16.html11-Mar-2018 00:16 68K
[TXT]query_1_17.html23-Apr-2018 00:38 1.5K
[TXT]query_1_17_1.html23-Apr-2018 00:38 3.0M
[TXT]query_1_17_2.html23-Apr-2018 00:38 3.0M
[TXT]query_1_17_3.html23-Apr-2018 00:38 3.0M
[TXT]query_1_17_4.html23-Apr-2018 00:38 3.0M
[TXT]query_1_18.html23-Apr-2018 00:38 1.5K
[TXT]query_1_18_1.html23-Apr-2018 00:38 2.7M
[TXT]query_1_18_2.html23-Apr-2018 00:38 2.7M
[TXT]query_1_18_3.html23-Apr-2018 00:38 2.7M
[TXT]query_1_18_4.html23-Apr-2018 00:38 2.7M
[TXT]query_1_19.html08-Aug-2017 00:16 5.2K
[TXT]query_1_20.html11-Mar-2018 00:16 45K
[TXT]query_1_21.html28-Feb-2018 00:08 51K
[TXT]query_1_22.html25-Aug-2016 00:14 2.5K
[TXT]query_1_23.html28-Feb-2018 00:08 30K
[TXT]query_1_24.html08-Aug-2017 00:16 22K
[TXT]query_1_25.html25-Aug-2016 00:14 7.2K
[TXT]query_1_26.html25-Aug-2016 00:14 2.7K
[TXT]query_1_27.html25-Aug-2016 00:14 2.7K
[TXT]query_1_28.html25-Aug-2016 00:14 2.3K
[TXT]query_1_29.html25-Oct-2017 00:00 100K
[TXT]query_1_30.html25-Oct-2017 00:00 98K
[TXT]query_1_31.html25-Aug-2016 00:14 3.0K
[TXT]query_1_32.html25-Aug-2016 00:14 2.1K
[TXT]query_1_33.html23-Apr-2018 00:38 67K
[TXT]query_1_34.html23-Apr-2018 00:38 67K
[TXT]query_1_37.html03-Dec-2017 00:06 2.1K
[TXT]query_1_38.html03-Dec-2017 00:06 66K
[TXT]query_1_41.html03-Dec-2017 00:06 66K
[TXT]query_1_42.html03-Dec-2017 00:06 66K
[TXT]query_1_45.html10-Jul-2017 23:57 26K
[TXT]query_1_46.html10-Jul-2017 23:57 26K
[TXT]query_1_49.html03-Dec-2017 00:06 6.5K
[TXT]query_1_50.html03-Dec-2017 00:06 6.5K
[TXT]query_1_53.html25-Aug-2016 00:14 4.3K
[TXT]query_1_54.html25-Aug-2016 00:14 4.4K
[TXT]query_1_65.html25-Aug-2016 00:14 1.9K
[TXT]query_1_66.html25-Aug-2016 00:14 2.5K
[TXT]query_1_67.html18-Mar-2018 00:12 38K
[TXT]query_1_68.html18-Mar-2018 00:12 37K
[TXT]structure_grid.html23-Apr-2018 00:38 1.6K
[TXT]thermo_grid.html23-Apr-2018 00:38 1.8K

Apache/2.2.3 (CentOS) Server at www.bmrb.wisc.edu Port 80